User: anonymous   Login
Location: Onan Observatory
(44.8103°N, 93.9397°W)
Time: 00:12:16
(UTC-05:00)
Language:

Iridium 90 - Orbit

View from above orbital plane
View from above orbital plane
View from above satellite
View from above satellite

Ground track
Ground track

The orbit data is extracted from the following two-line orbital elements,

1 27373U 02005B   18146.60995001 +.00076543 -11736-6 +38981-3 0  9991
2 27373 086.4355 201.5369 0304222 061.8833 301.2809 15.37200099861489
Epoch (UTC): 26 May 2018 14:38:19
Eccentricity: 0.0304222
inclination: 86.4355°
perigee height: 246 km
apogee height: 662 km
right ascension of ascending node: 201.5369°
argument of perigee: 61.8833°
revolutions per day: 15.37200099
mean anomaly at epoch: 301.2809°
orbit number at epoch: 86148

The dashed part of the orbit path shows where the satellite is in the earth's shadow,  

DLR